Weather History for KDXX - March, 2013

Change the Weather History Date:

Friday, March 8, 2013

  Actual Average (KAQP) Record (KAQP)
Temperature  
Mean Temperature 21 °F -  
Max Temperature 32 °F 26 °F 50 °F (2015)
Min Temperature 10 °F 11 °F -4 °F (1997)
Degree Days  
Heating Degree Days 44    
Moisture  
Dew Point 18 °F    
Average Humidity 87    
Maximum Humidity 93    
Minimum Humidity 74    
Precipitation  
Precipitation 0.18 in - - ()
Sea Level Pressure  
Sea Level Pressure 30.16 in    
Wind  
Wind Speed 4 mph (East)    
Max Wind Speed 12 mph    
Max Gust Speed -    
Visibility 4 miles    
Events      
Averages and records for this station are not official NWS values.
T = Trace of Precipitation, MM = Missing Value Source: NWS Daily Summary

Daily Weather History Graph

Daily Weather History Graph

Search for Another Location

Airport or City:

Trip Planner

Search our weather history database for the weather conditions in past years. The results will help you decide how hot, cold, wet, or windy it might be!

Date:

Astronomy

Mar. 08, 2013 Rise Set
Actual Time 6:49 AM CST 6:21 PM CST
Civil Twilight 6:20 AM CST 6:51 PM CST
Nautical Twilight 5:46 AM CST 7:25 PM CST
Astronomical Twilight 5:12 AM CST 7:59 PM CST
Moon 4:41 AM CST (3/8) 3:11 PM CST (3/8)
Length of Visible Light 12h 30m
Length of Day
11h 32m
Waning Crescent, 11% of the Moon is Illuminated
Mar 8
Waning Crescent
Mar 11
New
Mar 19
First Quarter
Mar 27
Full
Apr 2
Last Quarter

Hourly Weather History & Observations

Time (CST) Temp. Windchill Dew Point Humidity Pressure Visibility Wind Dir Wind Speed Gust Speed Precip Events Conditions
12:14 AM 15.8 °F 5.1 °F 12.2 °F 86% 30.21 in 7.0 mi ESE 8.1 mph - N/A   Clear
12:33 AM 15.8 °F 6.1 °F 12.2 °F 86% 30.21 in 7.0 mi ESE 6.9 mph - N/A   Clear
12:54 AM 14.0 °F 5.1 °F 10.4 °F 86% 30.21 in 7.0 mi ESE 5.8 mph - N/A   Clear
1:14 AM 14.0 °F 6.5 °F 10.4 °F 86% 30.21 in 7.0 mi ESE 4.6 mph - N/A   Clear
1:33 AM 14.0 °F - 12.2 °F 93% 30.22 in 7.0 mi Calm Calm - N/A   Clear
1:54 AM 14.0 °F - 10.4 °F 86% 30.22 in 7.0 mi Calm Calm - N/A   Clear
2:14 AM 12.2 °F - 10.4 °F 92% 30.22 in 5.0 mi Calm Calm - N/A   Clear
2:33 AM 14.0 °F - 12.2 °F 93% 30.22 in 5.0 mi Calm Calm - N/A   Clear
2:54 AM 14.0 °F - 10.4 °F 86% 30.22 in 5.0 mi Calm Calm - N/A   Clear
3:14 AM 12.2 °F - 10.4 °F 92% 30.21 in 4.0 mi Calm Calm - N/A   Clear
3:33 AM 12.2 °F - 10.4 °F 92% 30.21 in 4.0 mi Calm Calm - N/A   Clear
3:54 AM 12.2 °F - 10.4 °F 92% 30.21 in 4.0 mi Calm Calm - N/A   Clear
4:14 AM 14.0 °F 6.5 °F 10.4 °F 86% 30.21 in 4.0 mi SE 4.6 mph - N/A   Clear
4:33 AM 12.2 °F - 10.4 °F 92% 30.22 in 4.0 mi Calm Calm - N/A   Clear
4:53 AM 10.4 °F - 8.6 °F 92% 30.22 in 4.0 mi Calm Calm - N/A   Clear
5:14 AM 12.2 °F - 10.4 °F 92% 30.22 in 5.0 mi Calm Calm - N/A   Clear
5:33 AM 14.0 °F - 10.4 °F 86% 30.23 in 4.0 mi Calm Calm - N/A   Clear
5:53 AM 14.0 °F - 10.4 °F 86% 30.23 in 4.0 mi Calm Calm - N/A   Clear
6:14 AM 14.0 °F - 10.4 °F 86% 30.24 in 4.0 mi Calm Calm - N/A   Clear
6:33 AM 12.2 °F - 10.4 °F 92% 30.23 in 4.0 mi Calm Calm - N/A   Clear
6:53 AM 12.2 °F - 10.4 °F 92% 30.23 in 2.5 mi Calm Calm - N/A   Clear
7:14 AM 12.2 °F - 10.4 °F 92% 30.23 in 2.0 mi Calm Calm - N/A   Clear
7:33 AM 12.2 °F - 10.4 °F 92% 30.24 in 1.8 mi Calm Calm - N/A   Mist
7:53 AM 12.2 °F - 8.6 °F 85% 30.23 in 2.0 mi Calm Calm - N/A   Clear
8:14 AM 12.2 °F - 8.6 °F 85% 30.24 in 2.0 mi Calm Calm - N/A   Clear
8:33 AM 14.0 °F - 10.4 °F 86% 30.23 in 2.0 mi Calm Calm - N/A   Clear
8:53 AM 15.8 °F 8.6 °F 12.2 °F 86% 30.22 in 2.5 mi SE 4.6 mph - N/A   Clear
9:14 AM 15.8 °F 10.2 °F 12.2 °F 86% 30.22 in 3.0 mi SSE 3.5 mph - N/A   Clear
9:33 AM 17.6 °F - 14.0 °F 86% 30.21 in 3.0 mi Calm Calm - N/A   Clear
9:53 AM 17.6 °F - 15.8 °F 93% 30.22 in 3.0 mi Calm Calm - N/A   Clear
10:14 AM 19.4 °F - 15.8 °F 86% 30.22 in 4.0 mi Calm Calm - N/A   Clear
10:33 AM 19.4 °F - 15.8 °F 86% 30.21 in 4.0 mi Calm Calm - N/A   Clear
10:54 AM 21.2 °F - 15.8 °F 80% 30.21 in 4.0 mi Calm Calm - N/A   Haze
11:14 AM 21.2 °F 16.4 °F 17.6 °F 86% 30.21 in 3.0 mi ENE 3.5 mph - N/A   Clear
11:33 AM 23.0 °F 18.4 °F 17.6 °F 80% 30.21 in 4.0 mi ENE 3.5 mph - N/A   Haze
11:54 AM 24.8 °F 17.9 °F 19.4 °F 80% 30.20 in 3.0 mi East 5.8 mph - N/A   Haze
12:14 PM 24.8 °F 19.1 °F 19.4 °F 80% 30.21 in 3.0 mi ENE 4.6 mph - N/A   Haze
12:33 PM 24.8 °F 19.1 °F 19.4 °F 80% 30.20 in 3.0 mi ENE 4.6 mph - N/A   Haze
12:54 PM 24.8 °F 19.1 °F 19.4 °F 80% 30.20 in 4.0 mi East 4.6 mph - N/A   Haze
1:14 PM 24.8 °F - 19.4 °F 80% 30.20 in 4.0 mi Calm Calm - N/A   Haze
1:33 PM 26.6 °F 22.6 °F 21.2 °F 80% 30.19 in 4.0 mi NE 3.5 mph - N/A   Haze
1:54 PM 26.6 °F 21.2 °F 21.2 °F 80% 30.18 in 4.0 mi NE 4.6 mph - N/A   Haze
2:14 PM 28.4 °F 22.2 °F 21.2 °F 74% 30.17 in 4.0 mi NNE 5.8 mph - N/A   Haze
2:33 PM 26.6 °F 18.2 °F 21.2 °F 80% 30.17 in 4.0 mi NE 8.1 mph - N/A   Haze
2:54 PM 28.4 °F 20.4 °F 21.2 °F 74% 30.16 in 4.0 mi NE 8.1 mph - N/A   Haze
3:13 PM 28.4 °F 19.7 °F 21.2 °F 74% 30.15 in 4.0 mi NE 9.2 mph - N/A   Haze
3:34 PM 28.4 °F 19.7 °F 23.0 °F 80% 30.15 in 4.0 mi ENE 9.2 mph - N/A   Haze
3:54 PM 28.4 °F 19.1 °F 23.0 °F 80% 30.14 in 3.0 mi ENE 10.4 mph - N/A   Haze
4:13 PM 28.4 °F 18.5 °F 24.8 °F 86% 30.14 in 3.0 mi East 11.5 mph - N/A   Clear
4:34 PM 28.4 °F 18.5 °F 24.8 °F 86% 30.13 in 4.0 mi ENE 11.5 mph - N/A   Clear
4:54 PM 28.4 °F 19.1 °F 24.8 °F 86% 30.12 in 4.0 mi East 10.4 mph - N/A   Clear
5:13 PM 28.4 °F 18.5 °F 24.8 °F 86% 30.12 in 4.0 mi East 11.5 mph - N/A   Clear
5:34 PM 28.4 °F 18.5 °F 24.8 °F 86% 30.12 in 4.0 mi East 11.5 mph - N/A   Clear
5:53 PM 26.6 °F 16.8 °F 23.0 °F 86% 30.12 in 3.0 mi East 10.4 mph - N/A   Clear
6:14 PM 26.6 °F 17.5 °F 23.0 °F 86% 30.11 in 3.0 mi East 9.2 mph - N/A   Clear
6:33 PM 26.6 °F 19.1 °F 23.0 °F 86% 30.10 in 4.0 mi ESE 6.9 mph - N/A   Clear
6:53 PM 26.6 °F 19.1 °F 23.0 °F 86% 30.09 in 4.0 mi East 6.9 mph - N/A   Scattered Clouds
7:14 PM 26.6 °F 20.0 °F 24.8 °F 93% 30.08 in 4.0 mi East 5.8 mph - N/A   Mostly Cloudy
7:33 PM 28.4 °F 21.2 °F 24.8 °F 86% 30.07 in 4.0 mi ENE 6.9 mph - N/A   Overcast
7:54 PM 28.4 °F 22.2 °F 24.8 °F 86% 30.07 in 4.0 mi ENE 5.8 mph - N/A   Scattered Clouds
8:14 PM 28.4 °F 23.3 °F 24.8 °F 86% 30.08 in 4.0 mi NNE 4.6 mph - N/A   Clear
8:33 PM 28.4 °F 19.7 °F 26.6 °F 93% 30.06 in 3.0 mi NE 9.2 mph - 0.01 in   Mostly Cloudy
8:54 PM 30.2 °F 21.9 °F 26.6 °F 86% 30.05 in 3.0 mi ENE 9.2 mph - 0.03 in   Overcast
9:14 PM 30.2 °F 20.8 °F 28.4 °F 93% 30.03 in 3.0 mi East 11.5 mph - 0.01 in   Mostly Cloudy
9:33 PM 30.2 °F 20.8 °F 28.4 °F 93% 30.03 in 3.0 mi East 11.5 mph - 0.02 in   Scattered Clouds
9:54 PM 30.2 °F 21.3 °F 28.4 °F 93% 30.02 in 3.0 mi East 10.4 mph - 0.04 in   Unknown
10:14 PM 30.2 °F 22.6 °F 28.4 °F 93% 30.02 in 2.5 mi East 8.1 mph - 0.03 in   Unknown
10:33 PM 30.2 °F 22.6 °F 28.4 °F 93% 30.01 in 2.0 mi ESE 8.1 mph - 0.05 in   Unknown
10:54 PM 32.0 °F 25.6 °F 30.2 °F 93% 30.01 in 2.5 mi ESE 6.9 mph - 0.07 in   Unknown
11:13 PM 32.0 °F 24.2 °F 30.2 °F 93% 29.99 in 2.5 mi ESE 9.2 mph - N/A   Unknown
11:34 PM 32.0 °F 24.8 °F 30.2 °F 93% 29.98 in 2.0 mi ESE 8.1 mph - 0.03 in   Unknown
11:54 PM 32.0 °F 24.8 °F 30.2 °F 93% 29.97 in 2.0 mi ESE 8.1 mph - 0.04 in   Unknown